This demonstration page uses our WeatherBlox Daily Observations layout. Learn more.

Left ArrowRight Arrow

41.12389, -100.76542

Hourly Observations for July 22, 2018

Temp ( °F °C ) Dew Point ( °F °C ) Humidity (%) Winds ( mph kmh ) Pressure ( in mb ) Visibility ( mi km ) Precip ( " mm )
12:53 am 00:53 Clear 74 23.3 73 22.8 97 97 SE 9 15 29.98 1015 10 16 0.00 0.00
1:53 am 01:53 Clear 73 22.8 72 22.2 96 96 SE 14 22 29.97 1015 10 16 0.00 0.00
2:53 am 02:53 Clear 73 22.8 71 21.7 94 94 SE 8 13 29.97 1015 10 16 0.00 0.00
3:53 am 03:53 Clear 71 21.7 70 21.1 96 96 SE 12 19 29.96 1015 10 16 0.00 0.00
4:53 am 04:53 Clear 70 21.1 70 21.1 100 100 SE 9 15 29.94 1014 10 16 0.00 0.00
5:53 am 05:53 Clear 70 21.1 70 21.1 100 100 SSE 6 9 29.98 1015 10 16 0.00 0.00
6:53 am 06:53 Sunny 69 20.6 69 20.6 100 100 SE 7 11 29.98 1015 10 16 0.00 0.00
7:53 am 07:53 Sunny 71 21.7 69 20.6 94 94 SSE 10 17 29.98 1015 10 16 0.00 0.00
8:53 am 08:53 Sunny 74 23.3 67 19.4 79 79 S 10 17 29.98 1015 10 16 0.00 0.00
9:53 am 09:53 Sunny 77 25 68 20 74 74 SSE 12 19 29.97 1015 10 16 0.00 0.00
10:53 am 10:53 Sunny 80 26.7 69 20.6 69 69 S 12 19 29.96 1015 10 16 0.00 0.00
11:53 am 11:53 Sunny 83 28.3 69 20.6 63 63 SSW 15 24 29.95 1014 10 16 0.00 0.00
12:53 pm 12:53 Sunny 85 29.4 70 21.1 61 61 SSW 13 20 29.93 1014 10 16 0.00 0.00
1:53 pm 13:53 Sunny 86 30 72 22.2 63 63 SSW 7 11 29.93 1014 10 16 0.00 0.00
2:53 pm 14:53 Mostly Sunny 88 31.1 72 22.2 59 59 VRB 5 7 29.93 1014 10 16 0.00 0.00
3:53 pm 15:53 Mostly Sunny 89 31.7 73 22.8 59 59 S 8 13 29.93 1014 10 16 0.00 0.00
4:53 pm 16:53 Mostly Cloudy 90 32.2 73 22.8 58 58 SSE 7 11 29.94 1014 10 16 0.00 0.00
5:53 pm 17:53 Mostly Cloudy 87 30.6 73 22.8 63 63 SSE 5 7 29.94 1014 10 16 0.00 0.00
6:53 pm 18:53 Sunny 85 29.4 74 23.3 70 70 SE 10 17 29.95 1014 10 16 0.00 0.00
7:53 pm 19:53 Sunny 81 27.2 73 22.8 77 77 SE 10 17 29.97 1015 10 16 0.00 0.00
8:53 pm 20:53 Sunny 79 26.1 72 22.2 79 79 SSE 7 11 29.97 1015 10 16 0.00 0.00
9:53 pm 21:53 Clear 76 24.4 73 22.8 91 91 SE 3 6 30.00 1016 10 16 0.00 0.03
10:53 pm 22:53 Partly Cloudy 75 23.9 73 22.8 94 94 Calm 30.05 1018 10 16 0.00 0.00
11:53 pm 23:53 Mostly Clear 74 23.3 73 22.8 97 97 Calm 30.06 1018 10 16 0.00 0.00

Powered by AerisWeather